Year,Month,Day,Hour,Minute,Value (Times are PST for temperature in C)
2009,08,05,00,00,17.10
2009,08,05,00,05,16.90
2009,08,05,00,06,16.90
2009,08,05,00,07,16.90
2009,08,05,00,08,16.90
2009,08,05,00,09,16.90
2009,08,05,00,10,16.90
2009,08,05,00,11,16.90
2009,08,05,00,12,16.90
2009,08,05,00,13,16.90
2009,08,05,00,14,16.90
2009,08,05,00,15,16.90
2009,08,05,00,16,16.90
2009,08,05,00,17,16.90
2009,08,05,00,18,16.90
2009,08,05,00,19,16.90
2009,08,05,00,20,16.90
2009,08,05,00,21,16.80
2009,08,05,00,22,16.80
2009,08,05,00,23,16.80
2009,08,05,00,24,16.80
2009,08,05,00,25,16.80
2009,08,05,00,26,16.80
2009,08,05,00,27,16.80
2009,08,05,00,28,16.80
2009,08,05,00,29,16.80
2009,08,05,00,30,16.80
2009,08,05,00,31,16.80
2009,08,05,00,32,16.80
2009,08,05,00,33,16.80
2009,08,05,00,34,16.80
2009,08,05,00,35,16.80
2009,08,05,00,36,16.80
2009,08,05,00,37,16.80
2009,08,05,00,38,16.80
2009,08,05,00,39,16.80
2009,08,05,00,40,16.80
2009,08,05,00,41,16.80
2009,08,05,00,42,16.80
2009,08,05,00,43,16.80
2009,08,05,00,44,16.80
2009,08,05,00,45,16.80
2009,08,05,00,46,16.80
2009,08,05,00,47,16.80
2009,08,05,00,48,16.80
2009,08,05,00,49,16.80
2009,08,05,00,50,16.80
2009,08,05,00,51,16.80
2009,08,05,00,52,16.80
2009,08,05,00,53,16.80
2009,08,05,00,54,16.80
2009,08,05,00,55,16.80
2009,08,05,00,56,16.80
2009,08,05,00,57,16.80
2009,08,05,00,58,16.80
2009,08,05,00,59,16.70
2009,08,05,01,00,16.70
2009,08,05,01,01,16.70
2009,08,05,01,02,16.70
2009,08,05,01,03,16.60
2009,08,05,01,04,16.60
2009,08,05,01,05,16.60
2009,08,05,01,06,16.60
2009,08,05,01,07,16.60
2009,08,05,01,08,16.60
2009,08,05,01,09,16.60
2009,08,05,01,10,16.60
2009,08,05,01,11,16.60
2009,08,05,01,12,16.60
2009,08,05,01,13,16.60
2009,08,05,01,14,16.60
2009,08,05,01,15,16.60
2009,08,05,01,16,16.60
2009,08,05,01,17,16.60
2009,08,05,01,18,16.60
2009,08,05,01,19,16.60
2009,08,05,01,20,16.60
2009,08,05,01,21,16.60
2009,08,05,01,22,16.60
2009,08,05,01,23,16.60
2009,08,05,01,24,16.60
2009,08,05,01,25,16.60
2009,08,05,01,26,16.60
2009,08,05,01,27,16.60
2009,08,05,01,28,16.60
2009,08,05,01,29,16.60
2009,08,05,01,30,16.60
2009,08,05,01,31,16.50
2009,08,05,01,32,16.50
2009,08,05,01,33,16.50
2009,08,05,01,34,16.50
2009,08,05,01,35,16.50
2009,08,05,01,36,16.50
2009,08,05,01,37,16.50
2009,08,05,01,38,16.50
2009,08,05,01,39,16.40
2009,08,05,01,40,16.40
2009,08,05,01,41,16.40
2009,08,05,01,42,16.40
2009,08,05,01,43,16.40
2009,08,05,01,44,16.40
2009,08,05,01,45,16.40
2009,08,05,01,46,16.40
2009,08,05,01,47,16.40
2009,08,05,01,48,16.40
2009,08,05,01,49,16.40
2009,08,05,01,50,16.40
2009,08,05,01,51,16.40
2009,08,05,01,52,16.40
2009,08,05,01,53,16.30
2009,08,05,01,54,16.30
2009,08,05,01,55,16.30
2009,08,05,01,56,16.30
2009,08,05,01,57,16.30
2009,08,05,01,58,16.30
2009,08,05,01,59,16.30
2009,08,05,02,00,16.30
2009,08,05,02,01,16.30
2009,08,05,02,02,16.30
2009,08,05,02,03,16.30
2009,08,05,02,04,16.30
2009,08,05,02,05,16.30
2009,08,05,02,06,16.30
2009,08,05,02,07,16.30
2009,08,05,02,08,16.30
2009,08,05,02,09,16.30
2009,08,05,02,10,16.30
2009,08,05,02,11,16.30
2009,08,05,02,12,16.30
2009,08,05,02,13,16.30
2009,08,05,02,14,16.30
2009,08,05,02,15,16.30
2009,08,05,02,16,16.30
2009,08,05,02,17,16.30
2009,08,05,02,18,16.30
2009,08,05,02,19,16.40
2009,08,05,02,20,16.40
2009,08,05,02,21,16.40
2009,08,05,02,22,16.40
2009,08,05,02,23,16.40
2009,08,05,02,24,16.50
2009,08,05,02,25,16.50
2009,08,05,02,26,16.50
2009,08,05,02,27,16.50
2009,08,05,02,28,16.50
2009,08,05,02,29,16.50
2009,08,05,02,30,16.50
2009,08,05,02,31,16.50
2009,08,05,02,32,16.50
2009,08,05,02,33,16.50
2009,08,05,02,34,16.50
2009,08,05,02,35,16.50
2009,08,05,02,36,16.50
2009,08,05,02,37,16.50
2009,08,05,02,38,16.50
2009,08,05,02,39,16.40
2009,08,05,02,40,16.40
2009,08,05,02,41,16.40
2009,08,05,02,42,16.40
2009,08,05,02,43,16.40
2009,08,05,02,44,16.40
2009,08,05,02,45,16.40
2009,08,05,02,46,16.40
2009,08,05,02,47,16.40
2009,08,05,02,48,16.40
2009,08,05,02,49,16.40
2009,08,05,02,50,16.40
2009,08,05,02,51,16.40
2009,08,05,02,52,16.40
2009,08,05,02,53,16.40
2009,08,05,02,54,16.40
2009,08,05,02,55,16.40
2009,08,05,02,56,16.40
2009,08,05,02,57,16.40
2009,08,05,02,58,16.40
2009,08,05,02,59,16.40
2009,08,05,03,00,16.40
2009,08,05,03,01,16.40
2009,08,05,03,02,16.40
2009,08,05,03,03,16.40
2009,08,05,03,04,16.50
2009,08,05,03,05,16.50
2009,08,05,03,06,16.50
2009,08,05,03,07,16.50
2009,08,05,03,08,16.50
2009,08,05,03,09,16.60
2009,08,05,03,10,16.60
2009,08,05,03,11,16.60
2009,08,05,03,12,16.60
2009,08,05,03,13,16.60
2009,08,05,03,14,16.50
2009,08,05,03,15,16.50
2009,08,05,03,16,16.50
2009,08,05,03,17,16.50
2009,08,05,03,18,16.50
2009,08,05,03,19,16.50
2009,08,05,03,20,16.50
2009,08,05,03,21,16.50
2009,08,05,03,22,16.50
2009,08,05,03,23,16.50
2009,08,05,03,24,16.50
2009,08,05,03,25,16.40
2009,08,05,03,26,16.40
2009,08,05,03,27,16.40
2009,08,05,03,28,16.40
2009,08,05,03,29,16.40
2009,08,05,03,30,16.40
2009,08,05,03,31,16.50
2009,08,05,03,32,16.50
2009,08,05,03,33,16.50
2009,08,05,03,34,16.60
2009,08,05,03,35,16.60
2009,08,05,03,36,16.60
2009,08,05,03,37,16.60
2009,08,05,03,38,16.60
2009,08,05,03,39,16.70
2009,08,05,03,40,16.70
2009,08,05,03,41,16.70
2009,08,05,03,42,16.70
2009,08,05,03,43,16.70
2009,08,05,03,44,16.70
2009,08,05,03,45,16.70
2009,08,05,03,46,16.70
2009,08,05,03,47,16.80
2009,08,05,03,48,16.70
2009,08,05,03,49,16.70
2009,08,05,03,50,16.70
2009,08,05,03,51,16.70
2009,08,05,03,52,16.70
2009,08,05,03,53,16.70
2009,08,05,03,54,16.70
2009,08,05,03,55,16.70
2009,08,05,03,56,16.60
2009,08,05,03,57,16.60
2009,08,05,03,58,16.60
2009,08,05,03,59,16.60
2009,08,05,04,00,16.50
2009,08,05,04,01,16.50
2009,08,05,04,02,16.50
2009,08,05,04,03,16.50
2009,08,05,04,04,16.50
2009,08,05,04,05,16.50
2009,08,05,04,06,16.50
2009,08,05,04,07,16.40
2009,08,05,04,08,16.40
2009,08,05,04,09,16.40
2009,08,05,04,10,16.40
2009,08,05,04,11,16.40
2009,08,05,04,12,16.40
2009,08,05,04,13,16.30
2009,08,05,04,14,16.30
2009,08,05,04,15,16.30
2009,08,05,04,16,16.30
2009,08,05,04,17,16.30
2009,08,05,04,18,16.20
2009,08,05,04,19,16.20
2009,08,05,04,20,16.20
2009,08,05,04,21,16.20
2009,08,05,04,22,16.20
2009,08,05,04,23,16.30
2009,08,05,04,24,16.30
2009,08,05,04,25,16.30
2009,08,05,04,26,16.30
2009,08,05,04,27,16.30
2009,08,05,04,28,16.40
2009,08,05,04,29,16.40
2009,08,05,04,30,16.50
2009,08,05,04,31,16.60
2009,08,05,04,32,16.60
2009,08,05,04,33,16.60
2009,08,05,04,34,16.60
2009,08,05,04,35,16.60
2009,08,05,04,36,16.70
2009,08,05,04,37,16.70
2009,08,05,04,38,16.70
2009,08,05,04,39,16.70
2009,08,05,04,40,16.70
2009,08,05,04,41,16.70
2009,08,05,04,42,16.70
2009,08,05,04,43,16.70
2009,08,05,04,44,16.70
2009,08,05,04,45,16.70
2009,08,05,04,46,16.70
2009,08,05,04,47,16.70
2009,08,05,04,48,16.70
2009,08,05,04,49,16.70
2009,08,05,04,50,16.70
2009,08,05,04,51,16.70
2009,08,05,04,52,16.60
2009,08,05,04,53,16.60
2009,08,05,04,54,16.60
2009,08,05,04,55,16.60
2009,08,05,04,56,16.60
2009,08,05,04,57,16.60
2009,08,05,04,58,16.60
2009,08,05,04,59,16.50
2009,08,05,05,00,16.50
2009,08,05,05,01,16.50
2009,08,05,05,02,16.50
2009,08,05,05,03,16.50
2009,08,05,05,04,16.50
2009,08,05,05,05,16.50
2009,08,05,05,06,16.50
2009,08,05,05,07,16.50
2009,08,05,05,08,16.50
2009,08,05,05,09,16.40
2009,08,05,05,10,16.40
2009,08,05,05,11,16.40
2009,08,05,05,12,16.40
2009,08,05,05,13,16.40
2009,08,05,05,14,16.40
2009,08,05,05,15,16.40
2009,08,05,05,16,16.40
2009,08,05,05,17,16.30
2009,08,05,05,18,16.30
2009,08,05,05,19,16.30
2009,08,05,05,20,16.30
2009,08,05,05,21,16.30
2009,08,05,05,22,16.30
2009,08,05,05,23,16.30
2009,08,05,05,24,16.20
2009,08,05,05,25,16.20
2009,08,05,05,26,16.20
2009,08,05,05,27,16.20
2009,08,05,05,28,16.20
2009,08,05,05,29,16.20
2009,08,05,05,30,16.20
2009,08,05,05,31,16.20
2009,08,05,05,32,16.20
2009,08,05,05,33,16.20
2009,08,05,05,34,16.20
2009,08,05,05,35,16.20
2009,08,05,05,36,16.20
2009,08,05,05,37,16.10
2009,08,05,05,38,16.10
2009,08,05,05,39,16.20
2009,08,05,05,40,16.20
2009,08,05,05,41,16.10
2009,08,05,05,42,16.20
2009,08,05,05,43,16.20
2009,08,05,05,44,16.20
2009,08,05,05,45,16.20
2009,08,05,05,46,16.20
2009,08,05,05,47,16.20
2009,08,05,05,48,16.20
2009,08,05,05,49,16.20
2009,08,05,05,50,16.20
2009,08,05,05,51,16.20
2009,08,05,05,52,16.20
2009,08,05,05,53,16.20
2009,08,05,05,54,16.20
2009,08,05,05,55,16.20
2009,08,05,05,56,16.20
2009,08,05,05,57,16.20
2009,08,05,05,58,16.10
2009,08,05,05,59,16.10
2009,08,05,06,00,16.10
2009,08,05,06,01,16.10
2009,08,05,06,02,16.10
2009,08,05,06,03,16.10
2009,08,05,06,04,16.10
2009,08,05,06,05,16.10
2009,08,05,06,06,16.10
2009,08,05,06,07,16.10
2009,08,05,06,08,16.10
2009,08,05,06,09,16.10
2009,08,05,06,10,16.00
2009,08,05,06,11,16.00
2009,08,05,06,12,16.00
2009,08,05,06,13,15.90
2009,08,05,06,14,15.90
2009,08,05,06,15,15.90
2009,08,05,06,16,15.90
2009,08,05,06,17,15.90
2009,08,05,06,18,15.80
2009,08,05,06,19,15.80
2009,08,05,06,20,15.80
2009,08,05,06,21,15.80
2009,08,05,06,22,15.80
2009,08,05,06,23,15.80
2009,08,05,06,24,15.80
2009,08,05,06,25,15.80
2009,08,05,06,26,15.80
2009,08,05,06,27,15.80
2009,08,05,06,28,15.80
2009,08,05,06,29,15.80
2009,08,05,06,30,15.80
2009,08,05,06,31,15.80
2009,08,05,06,32,15.80
2009,08,05,06,33,15.80
2009,08,05,06,34,15.80
2009,08,05,06,35,15.80
2009,08,05,06,36,15.80
2009,08,05,06,37,15.80
2009,08,05,06,38,15.80
2009,08,05,06,39,15.80
2009,08,05,06,40,15.80
2009,08,05,06,41,15.80
2009,08,05,06,42,15.80
2009,08,05,06,43,15.90
2009,08,05,06,44,15.90
2009,08,05,06,45,15.80
2009,08,05,06,46,15.80
2009,08,05,06,47,15.90
2009,08,05,06,48,15.90
2009,08,05,06,49,15.90
2009,08,05,06,50,16.00
2009,08,05,06,51,16.00
2009,08,05,06,52,16.10
2009,08,05,06,53,16.10
2009,08,05,06,54,16.20
2009,08,05,06,55,16.20
2009,08,05,06,56,16.20
2009,08,05,06,57,16.30
2009,08,05,06,58,16.30
2009,08,05,06,59,16.40
2009,08,05,07,00,16.40
2009,08,05,07,01,16.40
2009,08,05,07,02,16.40
2009,08,05,07,03,16.50
2009,08,05,07,04,16.50
2009,08,05,07,05,16.50
2009,08,05,07,06,16.60
2009,08,05,07,07,16.60
2009,08,05,07,08,16.60
2009,08,05,07,09,16.60
2009,08,05,07,10,16.70
2009,08,05,07,11,16.70
2009,08,05,07,12,16.70
2009,08,05,07,13,16.80
2009,08,05,07,14,16.80
2009,08,05,07,15,16.90
2009,08,05,07,16,16.90
2009,08,05,07,17,16.90
2009,08,05,07,18,17.00
2009,08,05,07,19,17.10
2009,08,05,07,20,17.10
2009,08,05,07,21,17.10
2009,08,05,07,22,17.20
2009,08,05,07,23,17.20
2009,08,05,07,24,17.30
2009,08,05,07,25,17.30
2009,08,05,07,26,17.40
2009,08,05,07,27,17.40
2009,08,05,07,28,17.50
2009,08,05,07,29,17.50
2009,08,05,07,30,17.60
2009,08,05,07,31,17.60
2009,08,05,07,32,17.70
2009,08,05,07,33,17.70
2009,08,05,07,34,17.70
2009,08,05,07,35,17.70
2009,08,05,07,36,17.80
2009,08,05,07,37,17.80
2009,08,05,07,38,17.80
2009,08,05,07,39,17.80
2009,08,05,07,40,17.80
2009,08,05,07,41,17.80
2009,08,05,07,42,17.80
2009,08,05,07,43,17.80
2009,08,05,07,44,17.80
2009,08,05,07,45,17.80
2009,08,05,07,46,17.80
2009,08,05,07,47,17.90
2009,08,05,07,48,17.90
2009,08,05,07,49,17.90
2009,08,05,07,50,17.90
2009,08,05,07,51,17.90
2009,08,05,07,52,17.90
2009,08,05,07,53,17.90
2009,08,05,07,54,17.90
2009,08,05,07,55,18.00
2009,08,05,07,56,18.00
2009,08,05,07,57,18.10
2009,08,05,07,58,18.10
2009,08,05,07,59,18.10
2009,08,05,08,00,18.20
2009,08,05,08,01,18.20
2009,08,05,08,02,18.30
2009,08,05,08,03,18.40
2009,08,05,08,04,18.40
2009,08,05,08,05,18.40
2009,08,05,08,06,18.40
2009,08,05,08,07,18.50
2009,08,05,08,08,18.50
2009,08,05,08,09,18.40
2009,08,05,08,10,18.40
2009,08,05,08,11,18.40
2009,08,05,08,12,18.40
2009,08,05,08,13,18.40
2009,08,05,08,14,18.50
2009,08,05,08,15,18.50
2009,08,05,08,16,18.60
2009,08,05,08,17,18.60
2009,08,05,08,18,18.60
2009,08,05,08,19,18.70
2009,08,05,08,20,18.70
2009,08,05,08,21,18.70
2009,08,05,08,22,18.80
2009,08,05,08,23,18.80
2009,08,05,08,24,18.90
2009,08,05,08,25,18.90
2009,08,05,08,26,18.90
2009,08,05,08,27,18.90
2009,08,05,08,28,18.90
2009,08,05,08,29,18.90
2009,08,05,08,30,19.00
2009,08,05,08,31,19.00
2009,08,05,08,32,19.10
2009,08,05,08,33,19.10
2009,08,05,08,34,19.00
2009,08,05,08,35,19.00
2009,08,05,08,36,18.90
2009,08,05,08,37,18.90
2009,08,05,08,38,18.90
2009,08,05,08,39,18.80
2009,08,05,08,40,18.70
2009,08,05,08,41,18.70
2009,08,05,08,42,18.60
2009,08,05,08,43,18.60
2009,08,05,08,44,18.60
2009,08,05,08,45,18.60
2009,08,05,08,46,18.60
2009,08,05,08,47,18.60
2009,08,05,08,48,18.60
2009,08,05,08,49,18.60
2009,08,05,08,50,18.60
2009,08,05,08,51,18.60
2009,08,05,08,52,18.50
2009,08,05,08,53,18.50
2009,08,05,08,54,18.50
2009,08,05,08,55,18.50
2009,08,05,08,56,18.50
2009,08,05,08,57,18.60
2009,08,05,08,58,18.60
2009,08,05,08,59,18.60
2009,08,05,09,00,18.60
2009,08,05,09,01,18.70
2009,08,05,09,02,18.70
2009,08,05,09,03,18.70
2009,08,05,09,04,18.60
2009,08,05,09,05,18.50
2009,08,05,09,06,18.30
2009,08,05,09,07,18.30
2009,08,05,09,08,18.20
2009,08,05,09,09,18.20
2009,08,05,09,10,18.10
2009,08,05,09,11,18.10
2009,08,05,09,12,18.10
2009,08,05,09,13,18.10
2009,08,05,09,14,18.10
2009,08,05,09,15,18.00
2009,08,05,09,16,18.00
2009,08,05,09,17,18.00
2009,08,05,09,18,18.00
2009,08,05,09,19,18.10
2009,08,05,09,20,18.10
2009,08,05,09,21,18.10
2009,08,05,09,22,18.10
2009,08,05,09,23,18.10
2009,08,05,09,24,18.20
2009,08,05,09,25,18.10
2009,08,05,09,26,18.10
2009,08,05,09,27,18.10
2009,08,05,09,28,18.20
2009,08,05,09,29,18.20
2009,08,05,09,30,18.20
2009,08,05,09,31,18.30
2009,08,05,09,32,18.30
2009,08,05,09,33,18.30
2009,08,05,09,34,18.20
2009,08,05,09,35,18.20
2009,08,05,09,36,18.10
2009,08,05,09,37,18.10
2009,08,05,09,38,18.10
2009,08,05,09,39,18.10
2009,08,05,09,40,18.10
2009,08,05,09,41,18.10
2009,08,05,09,42,18.10
2009,08,05,09,43,18.00
2009,08,05,09,44,18.00
2009,08,05,09,45,18.00
2009,08,05,09,46,18.10
2009,08,05,09,47,18.10
2009,08,05,09,48,18.00
2009,08,05,09,49,18.00
2009,08,05,09,50,18.00
2009,08,05,09,51,18.10
2009,08,05,09,52,18.10
2009,08,05,09,53,18.10
2009,08,05,09,54,18.00
2009,08,05,09,55,17.90
2009,08,05,09,56,17.80
2009,08,05,09,57,17.80
2009,08,05,09,58,17.90
2009,08,05,09,59,17.90
2009,08,05,10,00,17.90
2009,08,05,10,01,17.90
2009,08,05,10,02,17.90
2009,08,05,10,03,17.90
2009,08,05,10,04,17.80
2009,08,05,10,05,17.80
2009,08,05,10,06,17.80
2009,08,05,10,07,17.70
2009,08,05,10,08,17.70
2009,08,05,10,09,17.70
2009,08,05,10,10,17.70
2009,08,05,10,11,17.70
2009,08,05,10,12,17.60
2009,08,05,10,13,17.60
2009,08,05,10,14,17.70
2009,08,05,10,15,17.60
2009,08,05,10,16,17.60
2009,08,05,10,17,17.70
2009,08,05,10,18,17.70
2009,08,05,10,19,17.70
2009,08,05,10,20,17.70
2009,08,05,10,21,17.70
2009,08,05,10,22,17.70
2009,08,05,10,23,17.70
2009,08,05,10,24,17.70
2009,08,05,10,25,17.70
2009,08,05,10,26,17.70
2009,08,05,10,27,17.60
2009,08,05,10,28,17.60
2009,08,05,10,29,17.60
2009,08,05,10,30,17.60
2009,08,05,10,31,17.50
2009,08,05,10,32,17.50
2009,08,05,10,33,17.50
2009,08,05,10,34,17.60
2009,08,05,10,35,17.60
2009,08,05,10,36,17.60
2009,08,05,10,37,17.70
2009,08,05,10,38,17.70
2009,08,05,10,39,17.80
2009,08,05,10,40,17.80
2009,08,05,10,41,17.70
2009,08,05,10,42,17.60
2009,08,05,10,43,17.50
2009,08,05,10,44,17.50
2009,08,05,10,45,17.40
2009,08,05,10,46,17.40
2009,08,05,10,47,17.40
2009,08,05,10,48,17.40
2009,08,05,10,49,17.50
2009,08,05,10,50,17.50
2009,08,05,10,51,17.50
2009,08,05,10,52,17.40
2009,08,05,10,53,17.40
2009,08,05,10,54,17.40
2009,08,05,10,55,17.30
2009,08,05,10,56,17.30
2009,08,05,10,57,17.20
2009,08,05,10,58,17.20
2009,08,05,10,59,17.30
2009,08,05,11,00,17.30
2009,08,05,11,01,17.30
2009,08,05,11,02,17.30
2009,08,05,11,03,17.30
2009,08,05,11,04,17.30
2009,08,05,11,05,17.30
2009,08,05,11,06,17.40
2009,08,05,11,07,17.40
2009,08,05,11,08,17.40
2009,08,05,11,09,17.40
2009,08,05,11,10,17.30
2009,08,05,11,11,17.30
2009,08,05,11,12,17.30
2009,08,05,11,13,17.30
2009,08,05,11,14,17.40
2009,08,05,11,15,17.50
2009,08,05,11,16,17.60
2009,08,05,11,17,17.70
2009,08,05,11,18,17.70
2009,08,05,11,19,17.70
2009,08,05,11,20,17.70
2009,08,05,11,21,17.70
2009,08,05,11,22,17.80
2009,08,05,11,23,17.80
2009,08,05,11,24,17.80
2009,08,05,11,25,17.80
2009,08,05,11,26,17.80
2009,08,05,11,27,17.70
2009,08,05,11,28,17.60
2009,08,05,11,29,17.60
2009,08,05,11,30,17.60
2009,08,05,11,31,17.70
2009,08,05,11,32,17.70
2009,08,05,11,33,17.70
2009,08,05,11,34,17.80
2009,08,05,11,35,17.90
2009,08,05,11,36,17.90
2009,08,05,11,37,17.90
2009,08,05,11,38,18.00
2009,08,05,11,39,17.90
2009,08,05,11,40,17.90
2009,08,05,11,41,17.90
2009,08,05,11,42,17.90
2009,08,05,11,43,17.90
2009,08,05,11,44,17.90
2009,08,05,11,45,17.90
2009,08,05,11,46,17.90
2009,08,05,11,47,18.00
2009,08,05,11,48,18.00
2009,08,05,11,49,18.00
2009,08,05,11,50,18.00
2009,08,05,11,51,18.00
2009,08,05,11,52,18.00
2009,08,05,11,53,18.10
2009,08,05,11,54,18.10
2009,08,05,11,55,18.10
2009,08,05,11,56,18.20
2009,08,05,11,57,18.30
2009,08,05,11,58,18.30
2009,08,05,11,59,18.20
2009,08,05,12,00,18.20
2009,08,05,12,01,18.20
2009,08,05,12,02,18.30
2009,08,05,12,03,18.20
2009,08,05,12,04,18.20
2009,08,05,12,05,18.20
2009,08,05,12,06,18.30
2009,08,05,12,07,18.40
2009,08,05,12,08,18.40
2009,08,05,12,09,18.40
2009,08,05,12,10,18.30
2009,08,05,12,11,18.20
2009,08,05,12,12,18.20
2009,08,05,12,13,18.20
2009,08,05,12,14,18.20
2009,08,05,12,15,18.40
2009,08,05,12,16,18.50
2009,08,05,12,17,18.60
2009,08,05,12,18,18.60
2009,08,05,12,19,18.50
2009,08,05,12,20,18.50
2009,08,05,12,21,18.50
2009,08,05,12,22,18.60
2009,08,05,12,23,18.60
2009,08,05,12,24,18.60
2009,08,05,12,25,18.50
2009,08,05,12,26,18.40
2009,08,05,12,27,18.50
2009,08,05,12,28,18.60
2009,08,05,12,29,18.60
2009,08,05,12,30,18.50
2009,08,05,12,31,18.40
2009,08,05,12,32,18.40
2009,08,05,12,33,18.30
2009,08,05,12,34,18.30
2009,08,05,12,35,18.30
2009,08,05,12,36,18.50
2009,08,05,12,37,18.60
2009,08,05,12,38,18.80
2009,08,05,12,39,18.80
2009,08,05,12,40,18.90
2009,08,05,12,41,18.90
2009,08,05,12,42,19.10
2009,08,05,12,43,19.20
2009,08,05,12,44,19.10
2009,08,05,12,45,19.10
2009,08,05,12,46,18.90
2009,08,05,12,47,18.70
2009,08,05,12,48,18.50
2009,08,05,12,49,18.30
2009,08,05,12,50,18.40
2009,08,05,12,51,18.40
2009,08,05,12,52,18.50
2009,08,05,12,53,18.50
2009,08,05,12,54,18.50
2009,08,05,12,55,18.50
2009,08,05,12,56,18.60
2009,08,05,12,57,18.50
2009,08,05,12,58,18.50
2009,08,05,12,59,18.60
2009,08,05,13,00,18.60
2009,08,05,13,01,18.70
2009,08,05,13,02,18.80
2009,08,05,13,03,18.80
2009,08,05,13,04,18.80
2009,08,05,13,05,18.90
2009,08,05,13,06,18.90
2009,08,05,13,07,18.70
2009,08,05,13,08,18.70
2009,08,05,13,09,18.80
2009,08,05,13,10,18.80
2009,08,05,13,11,18.90
2009,08,05,13,12,18.90
2009,08,05,13,13,19.00
2009,08,05,13,14,19.00
2009,08,05,13,15,19.00
2009,08,05,13,16,19.00
2009,08,05,13,17,18.90
2009,08,05,13,18,18.90
2009,08,05,13,19,18.90
2009,08,05,13,20,18.90
2009,08,05,13,21,18.80
2009,08,05,13,22,18.80
2009,08,05,13,23,18.70
2009,08,05,13,24,18.60
2009,08,05,13,25,18.70
2009,08,05,13,26,18.70
2009,08,05,13,27,18.80
2009,08,05,13,28,18.80
2009,08,05,13,29,18.70
2009,08,05,13,30,18.60
2009,08,05,13,31,18.60
2009,08,05,13,32,18.70
2009,08,05,13,33,18.70
2009,08,05,13,34,18.70
2009,08,05,13,35,18.70
2009,08,05,13,36,18.70
2009,08,05,13,37,18.80
2009,08,05,13,38,18.80
2009,08,05,13,39,18.70
2009,08,05,13,40,18.80
2009,08,05,13,41,18.80
2009,08,05,13,42,19.00
2009,08,05,13,43,19.00
2009,08,05,13,44,19.00
2009,08,05,13,45,19.00
2009,08,05,13,46,18.90
2009,08,05,13,47,18.70
2009,08,05,13,48,18.70
2009,08,05,13,49,18.70
2009,08,05,13,50,18.80
2009,08,05,13,51,18.90
2009,08,05,13,52,19.00
2009,08,05,13,53,19.20
2009,08,05,13,54,19.20
2009,08,05,13,55,19.10
2009,08,05,13,56,19.00
2009,08,05,13,57,18.90
2009,08,05,13,58,18.90
2009,08,05,13,59,18.80
2009,08,05,14,00,18.90
2009,08,05,14,01,18.90
2009,08,05,14,02,18.90
2009,08,05,14,03,19.00
2009,08,05,14,04,19.00
2009,08,05,14,05,19.00
2009,08,05,14,06,18.90
2009,08,05,14,07,18.80
2009,08,05,14,08,18.80
2009,08,05,14,09,18.90
2009,08,05,14,10,18.80
2009,08,05,14,11,18.80
2009,08,05,14,12,18.90
2009,08,05,14,13,18.90
2009,08,05,14,14,18.90
2009,08,05,14,15,18.80
2009,08,05,14,16,18.70
2009,08,05,14,17,18.60
2009,08,05,14,18,18.60
2009,08,05,14,19,18.50
2009,08,05,14,20,18.50
2009,08,05,14,21,18.60
2009,08,05,14,22,18.60
2009,08,05,14,23,18.60
2009,08,05,14,24,18.70
2009,08,05,14,25,18.60
2009,08,05,14,26,18.50
2009,08,05,14,27,18.40
2009,08,05,14,28,18.40
2009,08,05,14,29,18.50
2009,08,05,14,30,18.60
2009,08,05,14,31,18.80
2009,08,05,14,32,18.90
2009,08,05,14,33,19.00
2009,08,05,14,34,19.00
2009,08,05,14,35,19.10
2009,08,05,14,36,19.10
2009,08,05,14,37,19.10
2009,08,05,14,38,19.00
2009,08,05,14,39,19.00
2009,08,05,14,40,18.90
2009,08,05,14,41,18.90
2009,08,05,14,42,18.90
2009,08,05,14,43,18.90
2009,08,05,14,44,18.90
2009,08,05,14,45,18.90
2009,08,05,14,46,18.90
2009,08,05,14,47,18.80
2009,08,05,14,48,18.70
2009,08,05,14,49,18.70
2009,08,05,14,50,18.80
2009,08,05,14,51,18.80
2009,08,05,14,52,18.90
2009,08,05,14,53,18.90
2009,08,05,14,54,18.90
2009,08,05,14,55,18.90
2009,08,05,14,56,18.90
2009,08,05,14,57,18.90
2009,08,05,14,58,19.00
2009,08,05,14,59,19.10
2009,08,05,15,00,19.30
2009,08,05,15,01,19.30
2009,08,05,15,02,19.20
2009,08,05,15,03,19.20
2009,08,05,15,04,19.20
2009,08,05,15,05,19.40
2009,08,05,15,06,19.40
2009,08,05,15,07,19.40
2009,08,05,15,08,19.40
2009,08,05,15,09,19.40
2009,08,05,15,10,19.50
2009,08,05,15,11,19.60
2009,08,05,15,12,19.60
2009,08,05,15,13,19.50
2009,08,05,15,14,19.40
2009,08,05,15,15,19.40
2009,08,05,15,16,19.40
2009,08,05,15,17,19.30
2009,08,05,15,18,19.30
2009,08,05,15,19,19.30
2009,08,05,15,20,19.20
2009,08,05,15,21,19.20
2009,08,05,15,22,19.20
2009,08,05,15,23,19.20
2009,08,05,15,24,19.20
2009,08,05,15,25,19.30
2009,08,05,15,26,19.20
2009,08,05,15,27,19.30
2009,08,05,15,28,19.30
2009,08,05,15,29,19.40
2009,08,05,15,30,19.40
2009,08,05,15,31,19.40
2009,08,05,15,32,19.40
2009,08,05,15,33,19.40
2009,08,05,15,34,19.40
2009,08,05,15,35,19.30
2009,08,05,15,36,19.30
2009,08,05,15,37,19.30
2009,08,05,15,38,19.30
2009,08,05,15,39,19.30
2009,08,05,15,40,19.30
2009,08,05,15,41,19.40
2009,08,05,15,42,19.50
2009,08,05,15,43,19.50
2009,08,05,15,44,19.40
2009,08,05,15,45,19.40
2009,08,05,15,46,19.40
2009,08,05,15,47,19.50
2009,08,05,15,48,19.50
2009,08,05,15,49,19.60
2009,08,05,15,50,19.50
2009,08,05,15,51,19.40
2009,08,05,15,52,19.30
2009,08,05,15,53,19.20
2009,08,05,15,54,19.20
2009,08,05,15,55,19.10
2009,08,05,15,56,19.10
2009,08,05,15,57,19.10
2009,08,05,15,58,19.10
2009,08,05,15,59,19.20
2009,08,05,16,00,19.20
2009,08,05,16,01,19.20
2009,08,05,16,02,19.10
2009,08,05,16,03,19.10
2009,08,05,16,04,19.20
2009,08,05,16,05,19.30
2009,08,05,16,06,19.40
2009,08,05,16,07,19.60
2009,08,05,16,08,19.60
2009,08,05,16,09,19.50
2009,08,05,16,10,19.60
2009,08,05,16,11,19.50
2009,08,05,16,12,19.50
2009,08,05,16,13,19.50
2009,08,05,16,14,19.50
2009,08,05,16,15,19.60
2009,08,05,16,16,19.60
2009,08,05,16,17,19.60
2009,08,05,16,18,19.60
2009,08,05,16,19,19.70
2009,08,05,16,20,19.70
2009,08,05,16,21,19.60
2009,08,05,16,22,19.60
2009,08,05,16,23,19.60
2009,08,05,16,24,19.60
2009,08,05,16,25,19.60
2009,08,05,16,26,19.50
2009,08,05,16,27,19.50
2009,08,05,16,28,19.40
2009,08,05,16,29,19.40
2009,08,05,16,30,19.40
2009,08,05,16,31,19.30
2009,08,05,16,32,19.30
2009,08,05,16,33,19.30
2009,08,05,16,34,19.30
2009,08,05,16,35,19.30
2009,08,05,16,36,19.40
2009,08,05,16,37,19.40
2009,08,05,16,38,19.40
2009,08,05,16,39,19.50
2009,08,05,16,40,19.50
2009,08,05,16,41,19.60
2009,08,05,16,42,19.60
2009,08,05,16,43,19.60
2009,08,05,16,44,19.50
2009,08,05,16,45,19.50
2009,08,05,16,46,19.50
2009,08,05,16,47,19.50
2009,08,05,16,48,19.40
2009,08,05,16,49,19.40
2009,08,05,16,50,19.40
2009,08,05,16,51,19.40
2009,08,05,16,52,19.50
2009,08,05,16,53,19.50
2009,08,05,16,54,19.60
2009,08,05,16,55,19.70
2009,08,05,16,56,19.80
2009,08,05,16,57,19.90
2009,08,05,16,58,20.00
2009,08,05,16,59,20.00
2009,08,05,17,00,19.90
2009,08,05,17,01,19.90
2009,08,05,17,02,19.80
2009,08,05,17,03,19.80
2009,08,05,17,04,19.80
2009,08,05,17,05,19.70
2009,08,05,17,06,19.70
2009,08,05,17,07,19.80
2009,08,05,17,08,19.80
2009,08,05,17,09,19.80
2009,08,05,17,10,19.90
2009,08,05,17,11,19.90
2009,08,05,17,12,19.80
2009,08,05,17,13,19.70
2009,08,05,17,14,19.70
2009,08,05,17,15,19.70
2009,08,05,17,16,19.60
2009,08,05,17,17,19.60
2009,08,05,17,18,19.50
2009,08,05,17,19,19.50
2009,08,05,17,20,19.60
2009,08,05,17,21,19.60
2009,08,05,17,22,19.70
2009,08,05,17,23,19.70